星链-2232 (STARLINK-2232 )

导读 | 星芒AI

STARLINK-2232 是 SpaceX 星链计划中的一颗低轨通信卫星,属于第22组星链卫星群。该卫星于2023年发射,运行在约550公里高度的近地轨道,旨在为全球用户提供高速互联网服务。作为星链网络的一部分,STARLINK-2232 采用先进推进系统和激光通信技术,提升网络稳定性和数据传输效率,支持偏远地区通信需求,助力实现全球宽带覆盖目标。

基本信息
目录编号:
48578
目录名称:
STARLINK-2232
国际标识:
2021-041AB
轨道中心:
EARTH
卫星名称:
星链-2232
卫星全名:
星链-2232 (STARLINK-2232 )
卫星状态:
在轨 (已飞行1677 天)
发射日期:
2021-05-15 UTC
国别 :
美国 (US)
星等 :
--
轨道信息
数据来源 国际轨道数据 AOE轨道数据
星历时间 2025-12-16T11:49:03+0800
20小时前
查看轨道信息
2025-12-14T15:00:00+0800
2天前
查看轨道信息
半长轴 6925.354km 6925.376km
偏心率 0.000132 0.0001596
轨道倾角 53.054° 53.051°
近地点辐角 84.407° 71.577°
升交点赤经 147.113° 155.500°
平近点角 275.707° 236.009°
近地点 546.304km 546.135km
远地点 548.134km 548.347km
周期 95.592分钟 95.593分钟
每日圈数 15.063983 15.063911
详细信息
固有亮度:
5
最大亮度:
2.5
卫星平台:
Starlink V1.0
覆盖范围:
全球
运营商:
太空探索技术公司
运营商所在国:
美国
制造商(研发单位):
太空探索技术公司
制造商所在国:
美国
使用方式:
暂无
卫星简介
星链(Starlink)计划是由太空探索技术公司(SpaceX)提出的一个巨型低轨卫星互联网星座项目,计划在2019年至2024年间在太空搭建由约1.2万颗卫星组成的“星链”网络,其中1584颗将部署在地球上空550千米处的近地轨道,并从2020年开始工作。该卫星仍在工作。
2D轨道图
3D轨道图
轨道高度分析图
轨道倾角分析图
轨道综合分析图
查看轨道综合分析图